| time (UTC) | temp C | wind direction | speed KPH | gust KPH | rain 1hr cm | rain 24hr cm | rain mn cm | humidity % | barometer mb |
| 20260504060241 | 5 | 87 | 0.0 | 0.0 | 0.00 | 0.00 | 0.00 | 69 | 1012.0 |
| 20260504050709 | 6 | 92 | 0.0 | 0.0 | 0.00 | 0.00 | 0.00 | 69 | 1011.8 |
| 20260504050206 | 6 | 88 | 0.0 | 0.0 | 0.00 | 0.00 | 0.00 | 68 | 1011.7 |
| 20260504045703 | 6 | 95 | 0.0 | 0.0 | 0.00 | 0.00 | 0.00 | 68 | 1011.6 |
| 20260504045157 | 6 | 95 | 0.0 | 0.0 | 0.00 | 0.00 | 0.00 | 69 | 1011.9 |
| 20260504044655 | 6 | 95 | 0.0 | 0.0 | 0.00 | 0.00 | 0.00 | 67 | 1011.6 |
| 20260504044152 | 6 | 95 | 0.0 | 0.0 | 0.00 | 0.00 | 0.00 | 67 | 1011.7 |
| 20260504043649 | 6 | 95 | 0.0 | 0.0 | 0.00 | 0.00 | 0.00 | 67 | 1011.8 |
| 20260504043146 | 6 | 95 | 0.0 | 0.0 | 0.00 | 0.00 | 0.00 | 66 | 1011.6 |
| 20260504042644 | 6 | 95 | 0.0 | 0.0 | 0.00 | 0.00 | 0.00 | 65 | 1011.4 |
| 20260504042140 | 6 | 89 | 0.0 | 0.0 | 0.00 | 0.00 | 0.00 | 65 | 1011.4 |
| 20260504041636 | 6 | 94 | 0.0 | 0.0 | 0.00 | 0.00 | 0.00 | 66 | 1011.5 |
| 20260504041132 | 6 | 94 | 0.0 | 0.0 | 0.00 | 0.00 | 0.00 | 66 | 1011.3 |
| 20260504040629 | 6 | 93 | 0.0 | 0.0 | 0.00 | 0.00 | 0.00 | 65 | 1011.3 |
| 20260504040126 | 6 | 93 | 0.0 | 0.0 | 0.00 | 0.00 | 0.00 | 65 | 1011.3 |
| 20260504035623 | 6 | 93 | 0.0 | 0.0 | 0.00 | 0.00 | 0.00 | 65 | 1011.4 |
| 20260504035119 | 6 | 93 | 0.0 | 0.0 | 0.00 | 0.00 | 0.00 | 63 | 1011.4 |
| 20260504034618 | 6 | 93 | 0.0 | 0.0 | 0.00 | 0.00 | 0.00 | 64 | 1011.3 |
| 20260504034114 | 7 | 92 | 0.0 | 0.0 | 0.00 | 0.00 | 0.00 | 62 | 1011.4 |
| 20260504033612 | 7 | 92 | 0.0 | 0.0 | 0.00 | 0.00 | 0.00 | 61 | 1011.3 |
| 20260504033109 | 7 | 92 | 0.0 | 0.0 | 0.00 | 0.00 | 0.00 | 59 | 1011.3 |
| 20260504032606 | 7 | 92 | 0.0 | 0.0 | 0.00 | 0.00 | 0.00 | 59 | 1011.3 |
| 20260504032103 | 7 | 101 | 0.0 | 0.0 | 0.00 | 0.00 | 0.00 | 58 | 1011.6 |
| 20260504031600 | 7 | 94 | 0.0 | 0.0 | 0.00 | 0.00 | 0.00 | 58 | 1011.3 |
| 20260504031056 | 7 | 94 | 0.0 | 0.0 | 0.00 | 0.00 | 0.00 | 60 | 1011.3 |
| 20260504030553 | 7 | 94 | 0.0 | 0.0 | 0.00 | 0.00 | 0.00 | 58 | 1011.4 |
| 20260504030049 | 7 | 94 | 0.0 | 0.0 | 0.00 | 0.00 | 0.00 | 57 | 1011.2 |
| 20260504025547 | 7 | 94 | 0.0 | 0.0 | 0.00 | 0.00 | 0.00 | 58 | 1011.4 |
| 20260504025043 | 7 | 94 | 0.0 | 0.0 | 0.00 | 0.00 | 0.00 | 59 | 1011.3 |
| 20260504024540 | 7 | 94 | 0.0 | 0.0 | 0.00 | 0.00 | 0.00 | 57 | 1011.2 |
| 20260504024037 | 8 | 94 | 0.0 | 0.0 | 0.00 | 0.00 | 0.00 | 57 | 1011.4 |
| 20260504023534 | 8 | 94 | 0.0 | 0.0 | 0.00 | 0.00 | 0.00 | 56 | 1011.4 |
| 20260504023030 | 8 | 98 | 0.0 | 0.0 | 0.00 | 0.00 | 0.00 | 55 | 1011.4 |
| 20260504022525 | 8 | 98 | 0.0 | 0.0 | 0.00 | 0.00 | 0.00 | 56 | 1011.3 |
| 20260504022022 | 8 | 102 | 0.0 | 0.0 | 0.00 | 0.00 | 0.00 | 54 | 1011.4 |
| 20260504021520 | 8 | 102 | 0.0 | 0.0 | 0.00 | 0.00 | 0.00 | 51 | 1011.5 |
| 20260504021017 | 8 | 102 | 0.0 | 0.0 | 0.00 | 0.00 | 0.00 | 50 | 1011.4 |
| 20260504020514 | 8 | 83 | 0.0 | 0.0 | 0.00 | 0.00 | 0.00 | 51 | 1011.4 |
| 20260504020010 | 8 | 96 | 0.0 | 0.0 | 0.00 | 0.00 | 0.00 | 53 | 1011.4 |
| 20260504015507 | 9 | 89 | 0.0 | 0.0 | 0.00 | 0.00 | 0.00 | 52 | 1011.4 |
| 20260504015002 | 9 | 88 | 0.0 | 0.0 | 0.00 | 0.00 | 0.00 | 49 | 1011.4 |
| 20260504014458 | 10 | 88 | 0.0 | 0.0 | 0.00 | 0.00 | 0.00 | 47 | 1011.3 |
| 20260504013955 | 10 | 105 | 0.0 | 0.0 | 0.00 | 0.00 | 0.00 | 47 | 1011.4 |
| 20260504013454 | 10 | 105 | 0.0 | 0.0 | 0.00 | 0.00 | 0.00 | 47 | 1011.2 |
| 20260504012949 | 10 | 105 | 0.0 | 0.0 | 0.00 | 0.00 | 0.00 | 47 | 1011.1 |
| 20260504012448 | 10 | 104 | 0.0 | 0.0 | 0.00 | 0.00 | 0.00 | 44 | 1011.2 |
| 20260504011946 | 11 | 104 | 0.0 | 0.0 | 0.00 | 0.00 | 0.00 | 43 | 1011.3 |
| 20260504011442 | 11 | 104 | 0.0 | 0.0 | 0.00 | 0.00 | 0.00 | 44 | 1011.1 |
| 20260504010938 | 11 | 105 | 0.0 | 0.0 | 0.00 | 0.00 | 0.00 | 42 | 1011.1 |
| 20260504010434 | 11 | 117 | 0.0 | 0.0 | 0.00 | 0.00 | 0.00 | 41 | 1010.8 |
| 20260504005930 | 11 | 117 | 0.0 | 0.0 | 0.00 | 0.00 | 0.00 | 41 | 1010.8 |
| 20260504005427 | 11 | 117 | 0.0 | 0.0 | 0.00 | 0.00 | 0.00 | 40 | 1010.8 |
| 20260504004924 | 11 | 117 | 0.0 | 0.0 | 0.00 | 0.00 | 0.00 | 39 | 1010.8 |
| 20260504004422 | 12 | 123 | 0.0 | 0.0 | 0.00 | 0.00 | 0.00 | 41 | 1010.7 |
| 20260504003919 | 12 | 95 | 0.0 | 0.0 | 0.00 | 0.00 | 0.00 | 39 | 1010.4 |
| 20260504003415 | 12 | 84 | 0.0 | 0.0 | 0.00 | 0.00 | 0.00 | 38 | 1010.7 |
| 20260504002912 | 12 | 136 | 0.0 | 0.0 | 0.00 | 0.00 | 0.00 | 38 | 1010.3 |
| 20260504002409 | 12 | 110 | 0.0 | 0.0 | 0.00 | 0.00 | 0.00 | 38 | 1010.4 |
| 20260504001907 | 12 | 95 | 0.0 | 0.0 | 0.00 | 0.00 | 0.00 | 37 | 1010.3 |
| 20260504001404 | 12 | 137 | 0.0 | 0.0 | 0.00 | 0.00 | 0.00 | 37 | 1010.2 |
| 20260504000900 | 12 | 102 | 0.0 | 0.0 | 0.00 | 0.00 | 0.00 | 38 | 1010.2 |
| 20260504000357 | 12 | 53 | 0.0 | 0.0 | 0.00 | 0.00 | 0.00 | 38 | 1010.1 |
| 20260503235855 | 13 | 100 | 0.0 | 0.0 | 0.00 | 0.00 | 0.00 | 37 | 1010.0 |
| 20260503235353 | 13 | 86 | 0.0 | 0.0 | 0.00 | 0.00 | 0.00 | 35 | 1009.9 |
| 20260503234849 | 13 | 103 | 0.0 | 0.0 | 0.00 | 0.00 | 0.00 | 35 | 1010.0 |
| 20260503234347 | 13 | 123 | 0.0 | 0.0 | 0.00 | 0.00 | 0.00 | 34 | 1009.8 |
| 20260503233845 | 13 | 106 | 0.0 | 0.0 | 0.00 | 0.00 | 0.00 | 33 | 1009.8 |
| 20260503233341 | 13 | 105 | 0.0 | 0.0 | 0.00 | 0.00 | 0.00 | 33 | 1009.7 |
| 20260503232837 | 13 | 148 | 1.6 | 1.6 | 0.00 | 0.00 | 0.00 | 32 | 1009.6 |
| 20260503232335 | 14 | 1 | 0.0 | 1.6 | 0.00 | 0.00 | 0.00 | 32 | 1009.6 |
| 20260503231833 | 14 | 336 | 1.6 | 1.6 | 0.00 | 0.00 | 0.00 | 32 | 1009.6 |
| 20260503231330 | 14 | 334 | 0.0 | 1.6 | 0.00 | 0.00 | 0.00 | 33 | 1009.4 |
| 20260503230825 | 14 | 217 | 3.2 | 4.8 | 0.00 | 0.00 | 0.00 | 31 | 1009.5 |
| 20260503230322 | 14 | 90 | 0.0 | 0.0 | 0.00 | 0.00 | 0.00 | 31 | 1009.6 |
| 20260503225820 | 14 | 82 | 0.0 | 0.0 | 0.00 | 0.00 | 0.00 | 30 | 1009.5 |
| 20260503225316 | 14 | 127 | 1.6 | 1.6 | 0.00 | 0.00 | 0.00 | 32 | 1009.3 |
| 20260503224812 | 15 | 290 | 3.2 | 3.2 | 0.00 | 0.00 | 0.00 | 30 | 1009.3 |
| 20260503224310 | 15 | 169 | 0.0 | 1.6 | 0.00 | 0.00 | 0.00 | 29 | 1009.3 |
| 20260503223807 | 15 | 329 | 3.2 | 3.2 | 0.00 | 0.00 | 0.00 | 29 | 1009.2 |
| 20260503223305 | 15 | 235 | 1.6 | 3.2 | 0.00 | 0.00 | 0.00 | 30 | 1009.0 |
| 20260503222800 | 15 | 253 | 1.6 | 1.6 | 0.00 | 0.00 | 0.00 | 29 | 1009.4 |
| 20260503222259 | 15 | 237 | 3.2 | 3.2 | 0.00 | 0.00 | 0.00 | 28 | 1009.5 |
| 20260503221757 | 15 | 124 | 1.6 | 3.2 | 0.00 | 0.00 | 0.00 | 28 | 1009.6 |
| 20260503221254 | 15 | 302 | 6.4 | 9.7 | 0.00 | 0.00 | 0.00 | 28 | 1009.5 |
| 20260503220751 | 15 | 111 | 0.0 | 1.6 | 0.00 | 0.00 | 0.00 | 29 | 1009.4 |
| 20260503220248 | 15 | 272 | 3.2 | 4.8 | 0.00 | 0.00 | 0.00 | 28 | 1009.4 |
| 20260503215744 | 15 | 285 | 3.2 | 3.2 | 0.00 | 0.00 | 0.00 | 28 | 1009.3 |
| 20260503215242 | 15 | 342 | 1.6 | 1.6 | 0.00 | 0.00 | 0.00 | 29 | 1009.5 |
| 20260503214740 | 16 | 104 | 1.6 | 3.2 | 0.00 | 0.00 | 0.00 | 28 | 1009.0 |
| 20260503214236 | 15 | 150 | 0.0 | 1.6 | 0.00 | 0.00 | 0.00 | 28 | 1009.4 |
| 20260503213734 | 15 | 247 | 4.8 | 6.4 | 0.00 | 0.00 | 0.00 | 26 | 1009.5 |
| 20260503213231 | 15 | 82 | 3.2 | 6.4 | 0.00 | 0.00 | 0.00 | 27 | 1009.3 |
| 20260503212728 | 15 | 114 | 4.8 | 6.4 | 0.00 | 0.00 | 0.00 | 27 | 1009.4 |
| 20260503212226 | 15 | 315 | 1.6 | 6.4 | 0.00 | 0.00 | 0.00 | 27 | 1009.5 |
| 20260503211723 | 15 | 66 | 0.0 | 0.0 | 0.00 | 0.00 | 0.00 | 27 | 1009.2 |
| 20260503211219 | 15 | 269 | 3.2 | 6.4 | 0.00 | 0.00 | 0.00 | 26 | 1009.3 |
| 20260503210715 | 15 | 357 | 1.6 | 3.2 | 0.00 | 0.00 | 0.00 | 27 | 1009.3 |
| 20260503210212 | 15 | 104 | 3.2 | 3.2 | 0.00 | 0.00 | 0.00 | 27 | 1009.3 |
| 20260503205707 | 15 | 314 | 3.2 | 4.8 | 0.00 | 0.00 | 0.00 | 29 | 1009.4 |
| 20260503205204 | 15 | 301 | 9.7 | 14.5 | 0.00 | 0.00 | 0.00 | 27 | 1009.3 |
| 20260503204700 | 15 | 115 | 1.6 | 3.2 | 0.00 | 0.00 | 0.00 | 28 | 1009.4 |
| 20260503204158 | 15 | 348 | 6.4 | 9.7 | 0.00 | 0.00 | 0.00 | 27 | 1009.5 |
| 20260503203655 | 15 | 105 | 3.2 | 6.4 | 0.00 | 0.00 | 0.00 | 29 | 1009.3 |
| 20260503203153 | 15 | 106 | 1.6 | 3.2 | 0.00 | 0.00 | 0.00 | 29 | 1009.4 |
| 20260503202649 | 15 | 209 | 3.2 | 4.8 | 0.00 | 0.00 | 0.00 | 28 | 1009.4 |
| 20260503202148 | 15 | 103 | 1.6 | 3.2 | 0.00 | 0.00 | 0.00 | 28 | 1009.3 |
| 20260503201646 | 14 | 57 | 1.6 | 3.2 | 0.00 | 0.00 | 0.00 | 28 | 1009.3 |
| 20260503201143 | 13 | 318 | 12.9 | 16.1 | 0.00 | 0.00 | 0.00 | 29 | 1009.5 |
| 20260503200638 | 15 | 310 | 6.4 | 9.7 | 0.00 | 0.00 | 0.00 | 29 | 1009.6 |
| 20260503200135 | 15 | 296 | 3.2 | 6.4 | 0.00 | 0.00 | 0.00 | 28 | 1009.4 |
| 20260503195632 | 15 | 246 | 4.8 | 6.4 | 0.00 | 0.00 | 0.00 | 27 | 1009.4 |
| 20260503195129 | 15 | 142 | 0.0 | 0.0 | 0.00 | 0.00 | 0.00 | 30 | 1009.6 |
| 20260503194626 | 15 | 116 | 1.6 | 1.6 | 0.00 | 0.00 | 0.00 | 30 | 1009.6 |
| 20260503194121 | 15 | 59 | 1.6 | 1.6 | 0.00 | 0.00 | 0.00 | 31 | 1009.7 |
| 20260503193619 | 15 | 88 | 1.6 | 3.2 | 0.00 | 0.00 | 0.00 | 29 | 1009.6 |
| 20260503193114 | 15 | 106 | 0.0 | 1.6 | 0.00 | 0.00 | 0.00 | 29 | 1009.8 |
| 20260503192610 | 15 | 78 | 6.4 | 14.5 | 0.00 | 0.00 | 0.00 | 29 | 1009.6 |
| 20260503192106 | 15 | 99 | 0.0 | 0.0 | 0.00 | 0.00 | 0.00 | 31 | 1009.7 |
| 20260503191603 | 15 | 99 | 1.6 | 3.2 | 0.00 | 0.00 | 0.00 | 29 | 1009.8 |
| 20260503191059 | 14 | 98 | 4.8 | 4.8 | 0.00 | 0.00 | 0.00 | 30 | 1009.9 |
| 20260503190556 | 14 | 227 | 3.2 | 3.2 | 0.00 | 0.00 | 0.00 | 31 | 1010.0 |
| 20260503190053 | 13 | 258 | 6.4 | 12.9 | 0.00 | 0.00 | 0.00 | 29 | 1010.0 |
| 20260503185545 | 15 | 217 | 9.7 | 12.9 | 0.00 | 0.00 | 0.00 | 28 | 1010.0 |
| 20260503185044 | 14 | 114 | 1.6 | 3.2 | 0.00 | 0.00 | 0.00 | 31 | 1010.2 |
| 20260503184541 | 13 | 321 | 4.8 | 9.7 | 0.00 | 0.00 | 0.00 | 32 | 1009.8 |
| 20260503184037 | 13 | 282 | 3.2 | 11.3 | 0.00 | 0.00 | 0.00 | 31 | 1010.1 |
| 20260503183534 | 13 | 100 | 3.2 | 4.8 | 0.00 | 0.00 | 0.00 | 31 | 1010.1 |
| 20260503183031 | 13 | 273 | 8.0 | 11.3 | 0.00 | 0.00 | 0.00 | 30 | 1010.2 |
| 20260503182529 | 14 | 338 | 8.0 | 16.1 | 0.00 | 0.00 | 0.00 | 32 | 1010.1 |
| 20260503182027 | 13 | 108 | 1.6 | 3.2 | 0.00 | 0.00 | 0.00 | 35 | 1010.3 |
| 20260503181524 | 13 | 37 | 3.2 | 3.2 | 0.00 | 0.00 | 0.00 | 32 | 1010.1 |
| 20260503181020 | 13 | 308 | 9.7 | 14.5 | 0.00 | 0.00 | 0.00 | 32 | 1010.2 |
| 20260503180517 | 12 | 125 | 1.6 | 1.6 | 0.00 | 0.00 | 0.00 | 35 | 1010.2 |
| 20260503180014 | 13 | 216 | 3.2 | 4.8 | 0.00 | 0.00 | 0.00 | 33 | 1010.4 |
| 20260503175512 | 14 | 336 | 9.7 | 12.9 | 0.00 | 0.00 | 0.00 | 32 | 1010.3 |
| 20260503175008 | 13 | 141 | 4.8 | 6.4 | 0.00 | 0.00 | 0.00 | 34 | 1010.5 |
| 20260503174506 | 12 | 170 | 1.6 | 3.2 | 0.00 | 0.00 | 0.00 | 36 | 1010.4 |
| 20260503174001 | 12 | 358 | 3.2 | 3.2 | 0.00 | 0.00 | 0.00 | 36 | 1010.5 |
| 20260503173457 | 12 | 316 | 8.0 | 12.9 | 0.00 | 0.00 | 0.00 | 35 | 1010.6 |
| 20260503172954 | 13 | 316 | 0.0 | 1.6 | 0.00 | 0.00 | 0.00 | 36 | 1010.4 |
| 20260503172452 | 12 | 326 | 0.0 | 1.6 | 0.00 | 0.00 | 0.00 | 37 | 1010.5 |
| 20260503171948 | 12 | 13 | 3.2 | 4.8 | 0.00 | 0.00 | 0.00 | 37 | 1010.7 |
| 20260503171444 | 12 | 110 | 1.6 | 1.6 | 0.00 | 0.00 | 0.00 | 38 | 1010.6 |
| 20260503170942 | 11 | 333 | 3.2 | 3.2 | 0.00 | 0.00 | 0.00 | 36 | 1010.6 |
| 20260503170438 | 11 | 211 | 4.8 | 11.3 | 0.00 | 0.00 | 0.00 | 38 | 1010.7 |
| 20260503150831 | 11 | 56 | 1.6 | 1.6 | 0.00 | 0.00 | 0.00 | 36 | 1011.2 |
| 20260503150326 | 11 | 252 | 4.8 | 4.8 | 0.00 | 0.00 | 0.00 | 34 | 1010.9 |
| 20260503140251 | 10 | 126 | 0.0 | 1.6 | 0.00 | 0.00 | 0.00 | 43 | 1011.0 |
| 20260503131221 | 8 | 14 | 6.4 | 9.7 | 0.00 | 0.00 | 0.00 | 51 | 1011.1 |
| 20260503130718 | 8 | 316 | 1.6 | 3.2 | 0.00 | 0.00 | 0.00 | 51 | 1011.2 |
| 20260503130215 | 8 | 283 | 4.8 | 6.4 | 0.00 | 0.00 | 0.00 | 53 | 1011.4 |
| 20260503120136 | 7 | 122 | 0.0 | 1.6 | 0.00 | 0.00 | 0.00 | 57 | 1011.0 |
| 20260503110603 | 6 | 9 | 3.2 | 4.8 | 0.00 | 0.00 | 0.00 | 58 | 1010.5 |
| 20260503090449 | 6 | 213 | 3.2 | 9.7 | 0.00 | 0.00 | 0.00 | 56 | 1009.9 |
| 20260503081416 | 7 | 316 | 4.8 | 4.8 | 0.00 | 0.00 | 0.00 | 54 | 1009.6 |
| 20260503080913 | 7 | 291 | 3.2 | 4.8 | 0.00 | 0.00 | 0.00 | 55 | 1009.8 |
| 20260503080409 | 7 | 60 | 4.8 | 6.4 | 0.00 | 0.00 | 0.00 | 54 | 1009.9 |
| 20260503072846 | 7 | 113 | 1.6 | 3.2 | 0.00 | 0.00 | 0.00 | 54 | 1009.7 |
| 20260503072343 | 7 | 181 | 1.6 | 1.6 | 0.00 | 0.00 | 0.00 | 54 | 1009.5 |
| 20260503071839 | 7 | 99 | 0.0 | 1.6 | 0.00 | 0.00 | 0.00 | 53 | 1009.5 |
| 20260503071337 | 7 | 133 | 1.6 | 1.6 | 0.00 | 0.00 | 0.00 | 53 | 1009.7 |
| 20260503070833 | 7 | 345 | 4.8 | 4.8 | 0.00 | 0.00 | 0.00 | 53 | 1009.7 |
| 20260503070331 | 7 | 85 | 0.0 | 0.0 | 0.00 | 0.00 | 0.00 | 53 | 1009.6 |